Starlink 3269

operational
NORAD ID: 50194 Int'l Des: 2021-125AQ Owner: SPXS Country: US Constellation: starlink
LEOCIRCULAR

About Starlink 3269

Description loading...

Live Position

Loading 3D Globe...

Upcoming Passes

Altitude History

Altitude vs Time

uPlot chart will show altitude changes over time

Two-Line Element Set

1 50194U 21125AQ 26061.27952170 .01700672 22293-2 17208-2 0 9991
2 50194 53.2008 168.5909 0010961 333.3841 26.6631 16.10719979237139
Epoch: Mar 2, 2026 • Age: 27 hours

Current Status

Altitude 244.9 km
Velocity 7.76 km/s
Sub-Earth Point -18.34°S, 154.26°E
Launch Date Dec 18, 2021
Age 4.2 years
Type internet

Technical Details

Classification Payload
Mass 290.00 kg
Dry Mass 270.00 kg
Total Mass 290.00 kg
Length 0.20 m
Diameter 2.80 m
Span 9.00 m
Shape Box + pan
Manufacturer SPXS
Bus Type Starlink
Phase Status In Orbit
Owner/State SPXS/US

Large Constellations

Loading constellations...